Content
SEND FEEDBACK

Daily
Averages
Monthly
Summary
Germany

WURZBURG, GERMANY


Home > Europe > Germany
Elevation: 850 feet     Latitude: 49 48N     Longitude: 009 54E

WEATHER
 
SELECT A DAY
Number of Records: 72,667;   Date Range: 2/20/97 - 7/8/14
 
SHARE

PRINT THIS DATA

[ ← Previous Day ]
WEATHER ALMANAC - NOVEMBER 1, 2013
[ Next Day → ]
[ °C ]   °F
Weather ElementAverageHighLow
Temperature43.5 °F48.2 °F (3:20 pm)39.2 °F (6:20 am)
Dewpoint41.2 °F42.8 °F (1:20 pm)39.2 °F (1:20 am)
Humidity91.8 %100 % (6:20 am)82 % (3:20 pm)
Barometer30.13 in30.24 in (1:20 am)29.95 in (11:20 pm)
Wind Speed3.6 mph5.8 mph (3:20 am)
Weather ElementAverage
Visibility3.6 mi
Wind DirectionESE (129.3 °)

Weather ElementTotal
Precipitation---
Heating Degree Days21.3 (Base 65)
Averaged from 30 records on November 1, 2013
WEATHER CONDITIONS BREAKOUT
WIND DIRECTION BREAKOUT
WEATHER BY HOUR - NOVEMBER 1, 2013
[ °C ]   °F
Local TimeTemperatureDewpointHumidityBarometerVisibilityWind DirectionWind SpeedGust SpeedPrecipitationEventsConditions
1:20 AM41.0 °F39.2 °F93 %30.24 in4.3 miWSW (250°)4.6 mph
2:20 AM41.0 °F39.2 °F93 %30.21 in4.3 miWest (260°)4.6 mph
3:20 AM41.0 °F39.2 °F93 %30.21 inWest (260°)5.8 mph
4:20 AM41.0 °F39.2 °F93 %30.21 in3.1 miWest (260°)4.6 mph
5:20 AM41.0 °F39.2 °F93 %30.21 in2.8 miWSW (240°)2.3 mph
6:20 AM39.2 °F39.2 °F100 %30.21 inWest (260°)5.8 mph
7:20 AM41.0 °F39.2 °F93 %30.21 in1.6 miSouth (190°)3.5 mph
7:30 AM41.0 °F39.2 °F93 %30.21 in1.6 miSouth (180°)4.6 mphOvercast
8:20 AM41.0 °F39.2 °F93 %30.21 in1.7 miSouth (180°)3.5 mphOvercast
9:20 AM41.0 °F41.0 °F100 %30.21 inVariable1.2 mph
10:20 AM42.8 °F41.0 °F93 %30.21 inVariable2.3 mph
10:50 AM42.8 °F41.0 °F93 %30.18 in2.8 miSSE (150°)3.5 mphOvercast
11:20 AM42.8 °F41.0 °F93 %30.18 in2.8 miSSE (150°)4.6 mphOvercast
11:50 AM44.6 °F41.0 °F87 %30.18 in2.8 miVariable2.3 mphOvercast
12:12 PM44.6 °F41.0 °F87 %30.15 in3.1 miSE (140°)3.5 mphOvercast
12:20 PM44.6 °F41.0 °F87 %30.15 in3.7 miSE (130°)2.3 mphOvercast
12:53 PM44.6 °F41.0 °F87 %30.15 in3.7 miSE (130°)2.3 mphOvercast
1:20 PM46.4 °F42.8 °F87 %30.15 in3.7 miEast (90°)3.5 mph
2:20 PM46.4 °F42.8 °F87 %30.12 in3.7 miSE (140°)3.5 mph
3:20 PM48.2 °F42.8 °F82 %30.09 in6.2 miESE (120°)3.5 mphMostly Cloudy
4:20 PM46.4 °F42.8 °F87 %30.06 in6.2 miSE (140°)4.6 mphMostly Cloudy
5:14 PM46.4 °F42.8 °F87 %30.06 in6.2 miEast (90°)2.3 mphMostly Cloudy
5:20 PM46.4 °F42.8 °F87 %30.06 in5.0 miEast (100°)2.3 mphMostly Cloudy
6:20 PM46.4 °F42.8 °F87 %30.04 in4.3 miENE (70°)4.6 mph
7:20 PM44.6 °F42.8 °F93 %30.04 in3.7 miENE (70°)3.5 mph
8:20 PM44.6 °F42.8 °F93 %30.01 in3.1 miENE (70°)4.6 mph
9:20 PM44.6 °F42.8 °F93 %30.01 in3.1 miNE (50°)3.5 mph
10:20 PM42.8 °F42.8 °F100 %29.98 inENE (60°)3.5 mph
11:00 PM42.8 °F42.8 °F100 %29.98 in3.7 miNE (50°)2.3 mphScattered Clouds
11:20 PM42.8 °F42.8 °F100 %29.95 in3.7 miNE (50°)3.5 mphScattered Clouds
Hourly data recorded from ETSI, located miles away from Wurzburg, Germany







STORIES FROM OUR PARTNERS